Home > Weather > Okayama > Past weeks

Flag for Japan Weather for the Past 2 Weeks in Okayama, Japan

Now
63 °F

Overcast.


Feels Like: 63 °F
Forecast: 51 / 64 °F
Wind: 2 mph from East

Location: Takamatsu

Current Time: May 6, 2016 at 4:09:09 AM

Latest Report: May 6, 2016 at 3:00 AM


Visibility: 13 mi

Pressure: 29.99 "Hg

Humidity: 50%

Dew Point: 44 °F

Location of OkayamaLocation

Historic Weather in Okayama — Graph

°F

Okayama Temperature Yesterday

Maximum temperature yesterday: 78 °F (at 3:00 PM)
Minimum temperature yesterday: 65 °F (at 11:00 PM)
Average temperature yesterday: 72 °F

High & Low Weather Summary for the Past Weeks

 TemperatureHumidityPressure
High79 °F (May 2, 4:00 PM)97% (Apr 21, 7:00 PM)30.12 "Hg (Apr 21, 7:00 PM)
Low46 °F (Apr 30, 5:00 AM)19% (May 1, 6:00 PM)29.44 "Hg (Apr 28, 3:00 AM)
Average64 °F64%29.88 "Hg
* Reported Apr 21 2:00 AM — May 6 2:00 AM, Okayama, Weather by CustomWeather, © 2016

Note: Actual official high and low records may vary slightly from our data, if they occured in-between our weather recording intervals... More about our weather records

Advertising

Okayama Weather History for the Previous 24 Hours

Scroll right to see more
 ConditionsComfort  
Time TempWeatherWind HumidityBarometerVisibility
2:00 AM
Fri, May 6
64 °FMild.1 mph48%30.01 "HgN/A
1:00 AM64 °FMild.1 mph49%30.02 "HgN/A
12:00 AM65 °FMild.1 mph46%30.03 "HgN/A
11:00 PM
Thu, May 5
65 °FMild.2 mph49%30.05 "HgN/A
10:00 PM68 °FMild.3 mph38%30.06 "HgN/A
9:00 PM70 °FOvercast.5 mph36%30.03 "Hg12 mi
8:00 PM72 °FMild.5 mph25%30.03 "HgN/A
7:00 PM74 °FMild.5 mph25%30.01 "HgN/A
6:00 PM76 °FOvercast.6 mph23%29.98 "Hg16 mi
5:00 PM77 °FPleasantly warm.8 mph22%29.98 "HgN/A
4:00 PM78 °FPleasantly warm.10 mph21%29.98 "HgN/A
3:00 PM78 °FOvercast.8 mph21%29.97 "Hg16 mi
2:00 PM78 °FPleasantly warm.10 mph21%29.99 "HgN/A
1:00 PM76 °FMild.10 mph24%30.00 "HgN/A
12:00 PM76 °FPartly sunny.13 mph24%30.01 "Hg12 mi
11:00 AM74 °FMild.13 mph25%30.02 "HgN/A
10:00 AM73 °FMild.13 mph27%30.03 "HgN/A
9:00 AM71 °FPassing clouds.17 mph28%30.01 "Hg12 mi
8:00 AM70 °FMild.12 mph31%29.99 "HgN/A
7:00 AM68 °FMild.15 mph34%29.96 "HgN/A
6:00 AM66 °FPassing clouds.10 mph37%29.93 "Hg12 mi
5:00 AM66 °FMild.10 mph35%29.90 "HgN/A
4:00 AM67 °FMild.14 mph36%29.88 "HgN/A
Weather by CustomWeather, © 2016

See weather overviewHow to use our weather pages